Weather reports worldwide

Advertisment
Essen-Bredeney, Germany (10410): temperature & dewpoint: 01.08.2020 03:00:00 - 07.08.2020 03:00:00 (CEST)Essen-Bredeney, Germany (10410): temperature 5cm & temperature -5cm: 01.08.2020 03:00:00 - 07.08.2020 03:00:00 (CEST)Essen-Bredeney, Germany (10410): temperature -20cm & temperature -100cm: 01.08.2020 03:00:00 - 07.08.2020 03:00:00 (CEST)Essen-Bredeney, Germany (10410): wind speed & gusts: 01.08.2020 03:00:00 - 07.08.2020 03:00:00 (CEST)Essen-Bredeney, Germany (10410): wind direction: 01.08.2020 03:00:00 - 07.08.2020 03:00:00 (CEST)Essen-Bredeney, Germany (10410): reduced air pressure: 01.08.2020 03:00:00 - 07.08.2020 03:00:00 (CEST)Essen-Bredeney, Germany (10410): visibility: 01.08.2020 03:00:00 - 07.08.2020 03:00:00 (CEST)Essen-Bredeney, Germany (10410): sunshine duration: 01.08.2020 03:00:00 - 07.08.2020 03:00:00 (CEST)Essen-Bredeney, Germany (10410): precipitation: 01.08.2020 03:00:00 - 07.08.2020 03:00:00 (CEST)
Date & Time tt [°C] td [°C] tt 5cm [°C] tt -5cm [°C] tt -20cm [°C] tt -100cm [°C] ff [km/h] ff [kn] fx [km/h] fx [kn] dd ppp [hPa] vv [km] sd [min] rr [mm]
07.08.2020 03:00:00 23,5 10,3 - 23,0 - 19,2 9 5 12 7 S 1019,7 55 0 0,0
07.08.2020 02:00:00 22,5 10,0 16,6 23,6 24,8 19,2 5 3 8 4 SE 1019,8 68 0 0,0
07.08.2020 01:00:00 22,9 10,1 18,2 24,4 25,2 19,2 5 3 13 7 ESE 1019,8 58 0 0,0
07.08.2020 00:00:00 25,1 10,5 21,9 25,2 25,6 19,2 9 5 14 7 E 1019,6 57 0 0,0
06.08.2020 23:00:00 25,9 10,7 23,3 26,1 26,0 19,2 9 5 16 8 E 1019,5 62 0 0,0
06.08.2020 22:00:00 26,8 10,4 24,2 27,3 26,3 19,2 9 5 16 9 ENE 1019,3 69 0 0,0
06.08.2020 21:00:00 27,9 10,5 25,3 28,9 26,5 19,2 7 4 16 9 ENE 1018,7 65 43 0,0
06.08.2020 20:00:00 29,7 10,4 30,0 30,6 26,5 19,2 7 4 13 7 ENE 1018,5 67 60 0,0
06.08.2020 19:00:00 30,3 10,1 32,7 31,8 26,3 19,2 7 4 15 8 E 1018,1 61 60 0,0
06.08.2020 18:00:00 30,9 10,4 34,8 32,6 26,0 19,2 5 3 13 7 SW 1018,4 75 60 0,0
06.08.2020 17:00:00 30,2 9,9 35,3 33,0 25,5 19,2 5 3 21 12 NE 1018,6 53 60 0,0
06.08.2020 16:00:00 30,3 10,0 36,4 32,7 24,8 19,2 10 5 19 10 SSE 1018,7 17 59 0,0
06.08.2020 15:00:00 29,6 10,0 35,4 31,9 24,1 19,2 15 8 26 14 SE 1019,0 67 60 0,0
06.08.2020 14:00:00 28,9 9,5 35,6 30,8 23,4 19,2 6 4 23 13 ESE 1019,4 55 60 0,0
06.08.2020 13:00:00 28,5 10,2 33,9 29,0 22,7 19,2 10 5 29 16 SSW 1019,6 75 60 0,0
06.08.2020 12:00:00 28,3 10,4 33,8 27,2 22,2 19,2 13 7 23 12 S 1019,9 58 60 0,0
06.08.2020 11:00:00 26,5 10,2 31,3 25,2 21,8 19,2 11 6 25 13 S 1019,9 72 60 0,0
06.08.2020 10:00:00 25,6 10,5 29,0 23,3 21,5 19,2 14 7 22 12 S 1019,8 70 60 0,0
06.08.2020 09:00:00 24,0 10,0 26,8 21,6 21,5 19,1 10 6 19 10 S 1019,4 69 60 0,0
06.08.2020 08:00:00 21,7 9,4 22,9 20,5 21,7 19,1 9 5 17 9 S 1019,2 73 60 0,0
06.08.2020 07:00:00 19,9 8,5 17,9 20,2 21,9 19,1 10 5 17 9 S 1018,9 75 19 0,0
06.08.2020 06:00:00 19,8 7,8 17,2 20,5 22,2 19,1 9 5 16 9 S 1018,5 72 0 0,0
06.08.2020 05:00:00 20,2 7,7 18,1 20,9 22,4 19,1 9 5 19 10 S 1018,1 71 0 0,0
06.08.2020 04:00:00 21,1 7,5 18,9 21,4 22,7 19,1 11 6 22 12 S 1017,7 67 0 0,0
06.08.2020 03:00:00 21,6 7,3 19,7 21,8 23,0 19,1 13 7 25 13 S 1017,4 71 0 0,0
06.08.2020 02:00:00 22,1 7,4 20,3 22,2 23,4 19,1 16 8 29 15 S 1017,2 67 0 0,0
06.08.2020 01:00:00 22,8 7,5 20,7 22,6 23,7 19,1 17 9 29 16 S 1016,8 58 0 0,0
06.08.2020 00:00:00 22,0 8,8 19,5 23,2 24,1 19,1 13 7 22 12 SSE 1016,8 59 0 0,0
05.08.2020 23:00:00 22,8 8,1 17,2 24,1 24,5 19,1 5 3 9 5 E 1016,4 60 0 0,0
05.08.2020 22:00:00 24,0 7,4 18,3 25,3 24,8 19,1 6 3 9 5 E 1016,1 75 0 0,0
05.08.2020 21:00:00 25,4 7,6 20,9 27,0 25,0 19,1 0 0 9 5 N 1015,5 71 44 0,0
05.08.2020 20:00:00 27,2 8,7 27,8 28,7 25,0 19,1 4 2 14 7 SE 1015,2 23 60 0,0
05.08.2020 19:00:00 27,8 6,4 29,7 29,8 24,8 19,1 8 4 24 13 S 1015,1 75 60 0,0
05.08.2020 18:00:00 28,1 7,0 31,8 30,7 24,5 19,1 9 5 22 12 SW 1015,3 75 60 0,0
05.08.2020 17:00:00 27,8 7,7 32,6 31,0 23,9 19,1 12 7 22 12 S 1015,4 75 60 0,0
05.08.2020 16:00:00 27,4 7,4 33,4 30,7 23,3 19,1 11 6 24 13 S 1015,7 75 60 0,0
05.08.2020 15:00:00 27,4 8,5 33,8 29,9 22,5 19,1 11 6 24 13 SSE 1016,0 75 60 0,0
05.08.2020 14:00:00 26,9 8,0 33,1 28,7 21,8 19,1 14 8 40 22 S 1016,3 75 60 0,0
05.08.2020 13:00:00 25,3 8,2 30,8 26,9 21,1 19,1 13 7 32 17 S 1016,8 56 60 0,0
05.08.2020 12:00:00 24,2 8,4 29,6 25,0 20,5 19,1 15 8 25 13 SW 1017,3 69 60 0,0
05.08.2020 11:00:00 23,1 8,6 28,3 22,9 20,1 19,1 12 7 27 14 SW 1017,4 50 60 0,0
05.08.2020 10:00:00 21,1 8,2 25,0 20,8 19,9 19,1 16 9 29 15 SSW 1017,6 73 60 0,0
05.08.2020 09:00:00 19,2 8,0 22,1 19,1 19,8 19,1 14 8 28 15 S 1017,6 75 60 0,0
05.08.2020 08:00:00 16,9 7,6 18,5 17,9 20,0 19,1 9 5 19 10 S 1017,2 56 60 0,0
05.08.2020 07:00:00 15,1 6,9 13,8 17,7 20,3 19,1 10 6 21 11 S 1017,0 59 4 0,0
05.08.2020 06:00:00 14,7 6,7 13,1 17,9 20,6 19,1 9 5 19 11 S 1016,8 69 0 0,0
05.08.2020 05:00:00 15,4 6,4 13,6 18,2 20,9 19,1 9 5 18 10 S 1016,7 65 0 0,0
05.08.2020 04:00:00 15,7 6,2 13,5 18,5 21,2 19,1 9 5 16 9 S 1016,9 72 0 0,0
05.08.2020 03:00:00 15,3 6,5 10,6 18,9 21,6 19,1 7 4 13 7 S 1016,9 72 0 0,0
05.08.2020 02:00:00 15,0 6,5 10,4 19,5 21,9 19,1 6 4 8 4 SE 1017,1 75 0 0,0
05.08.2020 01:00:00 14,4 7,7 11,0 20,2 22,3 19,1 6 3 8 4 ESE 1017,3 59 0 0,0
05.08.2020 00:00:00 15,2 7,5 11,4 20,9 22,7 19,1 5 3 7 4 E 1017,4 75 0 0,0
04.08.2020 23:00:00 16,7 5,8 12,7 21,7 23,1 19,1 3 2 4 2 SE 1017,5 75 0 0,0
04.08.2020 22:00:00 16,9 6,5 13,5 22,7 23,5 19,1 4 2 5 3 WNW 1017,5 72 0 0,0
04.08.2020 21:00:00 19,4 6,0 15,3 24,4 23,7 19,1 4 2 13 7 W 1016,9 71 42 0,0
04.08.2020 20:00:00 20,8 6,1 21,3 26,0 23,7 19,1 9 5 14 8 WSW 1016,8 71 60 0,0
04.08.2020 19:00:00 21,6 5,9 23,8 27,1 23,6 19,1 11 6 20 11 WSW 1016,5 56 60 0,0
04.08.2020 18:00:00 21,5 5,2 25,3 27,7 23,3 19,1 11 6 23 12 NW 1016,6 71 56 0,0
04.08.2020 17:00:00 21,8 6,8 27,2 27,7 23,0 19,1 9 5 22 12 NW 1016,5 60 50 0,0
04.08.2020 16:00:00 21,2 6,5 27,5 27,1 22,5 19,1 13 7 23 12 W 1016,8 75 34 0,0
04.08.2020 15:00:00 20,9 7,3 28,1 27,0 22,0 19,1 10 5 22 12 W 1016,8 75 40 0,0
04.08.2020 14:00:00 20,7 7,2 27,7 26,3 21,5 19,1 12 7 26 14 W 1017,1 75 38 0,0
04.08.2020 13:00:00 20,3 8,7 26,8 25,2 21,0 19,1 11 6 24 13 W 1016,9 65 53 0,0
04.08.2020 12:00:00 19,1 10,0 24,8 23,4 20,6 19,1 9 5 20 11 W 1016,9 75 35 0,0
04.08.2020 11:00:00 17,9 10,9 25,1 22,1 20,3 19,1 7 4 17 9 NW 1016,9 46 43 0,0
04.08.2020 10:00:00 15,8 12,2 17,3 20,6 20,2 19,1 9 5 13 7 NW 1017,2 32 43 0,0
04.08.2020 09:00:00 15,0 12,8 18,4 19,3 20,2 19,1 6 3 10 5 WNW 1017,1 16 55 0,0
04.08.2020 08:00:00 13,7 12,2 15,3 18,2 20,4 19,1 5 3 10 6 NW 1016,6 12 54 0,0
04.08.2020 07:00:00 12,7 12,1 11,9 18,0 20,7 19,1 8 4 11 6 NW 1016,0 9 0 0,0
04.08.2020 06:00:00 12,8 11,8 11,6 18,3 21,0 19,1 9 5 10 6 NW 1015,8 15 0 0,0
04.08.2020 05:00:00 13,3 11,7 11,4 18,8 21,3 19,1 5 3 10 6 NNW 1015,3 26 0 0,0
04.08.2020 04:00:00 13,7 11,3 11,8 19,4 21,6 19,1 7 4 12 7 NNW 1015,1 37 0 0,0
04.08.2020 03:00:00 14,5 11,3 13,8 19,9 21,9 19,1 7 4 11 6 NNW 1015,1 48 0 0,0
04.08.2020 02:00:00 14,9 10,9 14,0 20,3 22,3 19,0 6 3 14 7 N 1015,0 62 0 0,0
04.08.2020 01:00:00 15,2 10,6 13,4 20,7 22,6 19,0 6 3 16 9 N 1015,0 71 0 0,0
04.08.2020 00:00:00 15,8 10,8 14,0 21,4 23,0 19,0 8 5 17 9 NNE 1014,4 65 0 0,0
03.08.2020 23:00:00 16,5 10,7 15,4 22,3 23,3 19,0 12 6 23 12 NNE 1013,6 57 0 0,0
03.08.2020 22:00:00 17,4 11,1 17,2 23,1 23,6 19,0 12 6 29 16 N 1013,4 64 0 0,0
03.08.2020 21:00:00 18,2 10,9 18,2 24,1 23,9 19,0 20 11 32 17 N 1012,6 55 0 0,0
03.08.2020 20:00:00 20,8 8,2 20,7 25,3 24,1 19,0 11 6 19 10 N 1011,9 72 0 0,0
03.08.2020 19:00:00 21,0 8,0 21,8 26,5 24,1 19,0 9 5 22 12 N 1011,5 74 6 0,0
03.08.2020 18:00:00 21,6 7,8 24,1 27,9 23,9 19,0 9 5 19 11 N 1011,6 72 32 0,0
03.08.2020 17:00:00 22,4 8,2 28,4 28,4 23,5 19,0 11 6 26 14 NE 1011,6 56 54 0,0
03.08.2020 16:00:00 21,8 8,2 27,4 28,2 23,1 19,0 13 7 21 11 NNE 1012,1 60 36 0,0
03.08.2020 15:00:00 21,4 7,8 26,9 28,1 22,6 19,0 6 3 27 15 ENE 1012,6 71 45 0,0
03.08.2020 14:00:00 21,2 8,8 28,3 27,2 22,0 19,0 12 7 21 12 E 1013,1 75 43 0,0
03.08.2020 13:00:00 20,8 9,7 27,8 26,6 21,4 19,0 9 5 20 11 E 1013,3 62 51 0,0
03.08.2020 12:00:00 20,1 9,8 27,9 24,8 20,9 19,0 8 5 19 11 E 1013,8 50 59 0,0
03.08.2020 11:00:00 18,8 9,5 24,5 22,8 20,5 19,0 10 5 16 9 E 1014,3 54 60 0,0
03.08.2020 10:00:00 17,7 11,1 22,3 21,1 20,3 19,0 10 5 18 10 E 1014,4 72 60 0,0
03.08.2020 09:00:00 15,8 11,1 18,7 19,5 20,3 18,9 10 6 15 8 ESE 1014,6 55 54 0,0
03.08.2020 08:00:00 15,1 10,8 16,7 18,3 20,5 18,9 7 4 13 7 E 1014,6 51 53 0,0
03.08.2020 07:00:00 13,5 10,1 12,2 17,8 20,8 18,9 6 4 11 6 NE 1014,8 51 20 0,0
03.08.2020 06:00:00 11,7 10,5 8,9 18,1 21,2 18,9 3 2 10 6 ESE 1015,0 42 0 0,0
03.08.2020 05:00:00 13,4 9,8 10,2 18,6 21,5 18,9 8 4 11 6 NNE 1014,9 53 0 0,0
03.08.2020 04:00:00 14,1 9,7 11,8 19,1 21,9 18,9 8 4 13 7 NE 1015,0 58 0 0,0
03.08.2020 03:00:00 14,1 10,4 10,1 19,7 22,3 18,9 6 4 8 5 NE 1015,3 58 0 0,0
03.08.2020 02:00:00 14,4 10,5 11,2 20,4 22,7 18,9 5 3 14 8 NNE 1015,5 60 0 0,0
03.08.2020 01:00:00 15,6 10,2 13,5 21,1 23,0 18,9 9 5 13 7 NNE 1015,5 65 0 0,0
03.08.2020 00:00:00 16,7 10,1 15,0 21,9 23,4 18,8 8 5 18 10 N 1015,7 57 0 0,0
02.08.2020 23:00:00 18,4 10,3 17,2 22,9 23,6 18,8 11 6 22 12 NNW 1015,3 62 0 0,0
02.08.2020 22:00:00 19,4 10,7 18,8 23,5 23,9 18,8 8 4 23 12 NNW 1015,3 69 0 0,0
02.08.2020 21:00:00 20,2 10,7 20,1 24,4 24,1 18,8 11 6 21 12 NW 1014,8 64 3 0,0
02.08.2020 20:00:00 20,9 11,3 20,9 25,3 24,3 18,8 10 5 20 11 NNW 1014,5 58 1 0,0
02.08.2020 19:00:00 21,1 11,6 22,3 26,2 24,4 18,8 10 5 24 13 N 1014,3 64 12 0,0
02.08.2020 18:00:00 20,8 13,3 22,5 26,5 24,4 18,8 11 6 22 12 NNW 1014,6 56 0 0,0
02.08.2020 17:00:00 20,7 15,0 23,0 27,5 24,2 18,8 11 6 28 15 NNW 1014,6 41 1 0,0
02.08.2020 16:00:00 21,6 14,2 23,8 28,9 23,8 18,7 12 7 24 13 WSW 1014,4 38 40 0,0
02.08.2020 15:00:00 20,7 14,1 26,4 28,2 23,4 18,7 13 7 28 15 W 1014,7 38 55 0,0
02.08.2020 14:00:00 22,0 15,3 28,2 27,1 23,0 18,7 12 7 29 15 W 1014,9 37 35 0,0
02.08.2020 13:00:00 21,1 13,9 25,0 26,2 22,6 18,7 13 7 30 16 W 1014,9 49 41 0,0
02.08.2020 12:00:00 20,5 13,4 26,1 24,7 22,4 18,7 16 9 28 15 WSW 1014,9 56 39 0,0
02.08.2020 11:00:00 19,7 13,2 22,1 23,7 22,3 18,7 14 8 22 12 WSW 1014,7 75 27 0,0
02.08.2020 10:00:00 18,7 13,1 20,5 22,6 22,3 18,7 12 6 19 10 SW 1015,0 53 0 0,0
02.08.2020 09:00:00 18,8 14,2 20,4 22,1 22,5 18,6 9 5 16 9 WSW 1014,7 46 0 0,0
02.08.2020 08:00:00 18,6 14,0 18,4 21,9 22,6 18,6 5 3 10 5 WNW 1014,7 44 0 0,0
02.08.2020 07:00:00 18,5 14,3 18,4 21,9 22,8 18,6 4 2 9 5 W 1014,5 50 0 0,0
02.08.2020 06:00:00 18,6 14,7 18,4 22,2 23,1 18,6 4 2 9 5 WNW 1014,6 44 0 0,0
02.08.2020 05:00:00 18,9 15,0 18,7 22,5 23,3 18,6 5 3 14 7 WNW 1014,5 40 0 0,0
02.08.2020 04:00:00 19,2 16,2 18,6 22,9 23,5 18,6 8 4 13 7 WNW 1014,6 28 0 0,0
02.08.2020 03:00:00 20,0 16,1 19,6 23,2 23,8 18,5 6 3 12 6 NW 1014,8 32 0 0,0
02.08.2020 02:00:00 20,8 16,2 20,4 23,6 24,0 18,5 4 2 8 5 W 1014,9 46 0 0,0
02.08.2020 01:00:00 21,3 15,5 21,0 24,0 24,3 18,5 6 3 14 7 NNW 1015,1 56 0 0,0
02.08.2020 00:00:00 21,6 16,2 21,0 24,4 24,6 18,5 9 5 19 10 NNW 1014,7 42 0 0,0
01.08.2020 23:00:00 21,7 16,5 21,2 24,9 24,9 18,5 12 6 21 11 NNW 1014,8 49 0 0,0
01.08.2020 22:00:00 22,0 17,3 21,0 25,9 25,2 18,5 9 5 29 16 NNW 1014,9 42 0 0,0
01.08.2020 21:00:00 23,3 18,2 22,9 27,2 25,4 18,5 14 7 28 15 NW 1014,3 32 32 0,0
01.08.2020 20:00:00 25,4 17,9 26,2 28,4 25,4 18,4 13 7 24 13 NW 1013,7 40 40 0,0
01.08.2020 19:00:00 27,7 17,0 30,7 29,7 25,2 18,4 13 7 23 12 WNW 1013,2 45 60 0,0
01.08.2020 18:00:00 28,2 17,4 30,8 30,1 24,9 18,4 13 7 26 14 WNW 1013,4 46 54 0,0
01.08.2020 17:00:00 29,2 17,6 33,4 30,8 24,4 18,4 10 5 20 11 W 1013,3 45 56 0,0
01.08.2020 16:00:00 29,8 15,8 35,7 30,3 23,8 18,4 10 5 23 12 W 1013,5 51 60 0,0
01.08.2020 15:00:00 28,5 16,3 34,9 28,6 23,4 18,4 13 7 26 14 WSW 1013,7 46 52 0,0
01.08.2020 14:00:00 25,7 17,9 28,2 26,8 23,2 18,3 9 5 17 9 SSW 1014,4 36 0 0,0
01.08.2020 13:00:00 25,6 18,2 28,4 26,1 22,9 18,3 10 5 18 10 SSW 1014,6 47 0 0,0
01.08.2020 12:00:00 25,4 18,0 27,8 25,3 22,7 18,3 11 6 22 12 SSW 1014,6 48 10 0,0
01.08.2020 11:00:00 24,7 17,5 26,3 24,3 22,6 18,3 18 10 35 19 SW 1014,5 38 1 0,0
01.08.2020 10:00:00 23,9 16,9 24,5 23,9 22,6 18,3 11 6 19 10 SW 1014,0 43 5 0,0
01.08.2020 09:00:00 24,0 15,3 26,6 23,0 22,6 18,3 11 6 16 9 SW 1013,3 51 4 0,0
01.08.2020 08:00:00 23,9 14,5 25,4 22,6 22,8 18,3 11 6 16 9 SW 1013,3 61 9 0,0
01.08.2020 07:00:00 22,1 15,5 21,1 22,7 22,9 18,2 5 3 27 15 SSE 1013,1 57 0 0,0
01.08.2020 06:00:00 26,3 11,9 25,1 22,9 23,1 18,2 14 8 28 15 SW 1012,8 66 0 0,0
01.08.2020 05:00:00 26,3 12,1 24,8 22,9 23,3 18,2 19 10 31 17 S 1012,0 61 0 0,0
01.08.2020 04:00:00 27,2 11,9 25,3 23,0 23,6 18,2 16 8 28 15 S 1012,0 74 0 0,0
01.08.2020 03:00:00 25,6 12,3 23,1 23,1 23,9 18,2 14 8 22 12 S 1012,4 75 0 0,0

tt = temperature
td = dewpoint
tt 5cm = temperature 5cm
tt -5cm = temperature -5cm
tt -20cm = temperature -20cm
tt -100cm = temperature -100cm
ff = wind speed
fx = gusts
dd = wind direction
ppp = reduced air pressure
vv = visibility
sd = sunshine duration
rr = precipitation

Next stations